Location: Peebles
(55.6412°N, 3.1714°W)
Time: 09:57:20
(UTC+01:00)

FENGYUN 1C DEB - Visible Passes

Search period start: 26 June 2022 00:00
Search period end: 06 July 2022 00:00
Orbit: 837 x 980 km, 99.1° (Epoch: 25 June)

Date Brightness Start Highest point End Pass type
(mag) Time Alt. Az. Time Alt. Az. Time Alt. Az.
26 Jun ? 22:56:46 10° WSW 22:59:09 12° W 23:01:32 10° NW visible
27 Jun ? 23:02:46 10° W 23:04:30 11° WNW 23:06:14 10° WNW visible
28 Jun ? 23:09:21 10° W 23:09:50 10° WNW 23:10:21 10° WNW visible
